User: anonymous   Login
Location: *
(37.5724°S, 58.0067°E)
Time: 02:33:00
(UTC+00:00)
Language:

ARGOS - Orbit

View from above orbital plane
View from above orbital plane
View from above satellite
View from above satellite

Ground track
Ground track

The orbit data is extracted from the following two-line orbital elements,

1 25634U 99008A   20332.72685089  .00000004  00000-0  21339-4 0  9997
2 25634  98.4432   4.0931 0010601 158.9932 201.1682 14.19383203127132
Epoch (UTC): 27 November 2020 17:26:39
Eccentricity: 0.0010601
inclination: 98.4432°
perigee height: 820 km
apogee height: 835 km
right ascension of ascending node: 4.0931°
argument of perigee: 158.9932°
revolutions per day: 14.19383203
mean anomaly at epoch: 201.1682°
orbit number at epoch: 12713

The dashed part of the orbit path shows where the satellite is in the earth's shadow,  

DLR